Location: *
(40.9167°N, 9.5000°E)
Time: 07:56:08
(UTC+00:00)

Cosmos 1603 - Pass Details

Date: 09 April 2020
Orbit: 831 x 859 km, 71.0° (Epoch: 03 June)

Event Time Altitude Azimuth Distance (km) Brightness Sun altitude
Rises 18:13:05 0° 212° (SSW) 3,375 7.1 -4.0°
Reaches altitude 10° 18:15:33 10° 216° (SW) 2,441 6.4 -4.5°
Maximum altitude 18:21:05 61° 296° (WNW) 945 4.4 -5.5°
Drops below altitude 10° 18:26:37 10° 17° (NNE) 2,446 6.1 -6.5°
Sets 18:29:06 0° 21° (NNE) 3,383 6.8 -6.9°
